Buffalo, WY

5:28 PM MDT on April 23, 2018 (GMT -0600)
Johnson County

Weather History for KBYG - December, 2013

Change the Weather History Date:

Saturday, December 14, 2013

  Actual Average Record
Temperature  
Mean Temperature 37 °F 25 °F  
Max Temperature 54 °F 36 °F 61 °F (1998)
Min Temperature 20 °F 15 °F -19 °F (2008)
Degree Days  
Heating Degree Days 28 40  
Month to date heating degree days 725 548  
Since 1 July heating degree days 2433 2382  
Cooling Degree Days 0 0  
Month to date cooling degree days 0 0  
Year to date cooling degree days 709 492  
Moisture  
Dew Point 18 °F    
Average Humidity 47    
Maximum Humidity 69    
Minimum Humidity 24    
Precipitation  
Precipitation 0.00 in 0.01 in 0.56 in (1989)
Month to date precipitation 0.18 0.21  
Year to date precipitation 10.31 13.26  
Sea Level Pressure  
Sea Level Pressure 30.16 in    
Wind  
Wind Speed 5 mph (SSW)    
Max Wind Speed 14 mph    
Max Gust Speed 17 mph    
Visibility 10 miles    
Events      
T = Trace of Precipitation, MM = Missing Value Source: NWS Daily Summary

Daily Weather History Graph

Daily Weather History Graph

Search for Another Location

Airport or City:

Astronomy

Dec. 14, 2013 Rise Set
Actual Time 7:35 AM MST 4:27 PM MST
Civil Twilight 7:02 AM MST 5:01 PM MST
Nautical Twilight 6:25 AM MST 5:38 PM MST
Astronomical Twilight 5:50 AM MST 6:13 PM MST
Moon 2:55 PM MST (12/14) 4:54 AM MST (12/14)
Length of Visible Light 9h 59m
Length of Day
8h 52m
Waxing Gibbous, 94% of the Moon is Illuminated
Dec 14
Waxing Gibbous
Dec 17
Full
Dec 25
Last Quarter
Jan 1
New
Jan 7
First Quarter

Hourly Weather History & Observations

Time (MST) Temp. Windchill Dew Point Humidity Pressure Visibility Wind Dir Wind Speed Gust Speed Precip Events Conditions
12:53 AM 32.0 °F 28.7 °F 21.9 °F 66% 30.20 in 10.0 mi North 3.5 mph - N/A   Overcast
1:53 AM 32.0 °F - 23.0 °F 69% 30.21 in 10.0 mi Calm Calm - N/A   Overcast
2:53 AM 32.0 °F 24.8 °F 23.0 °F 69% 30.23 in 10.0 mi NW 8.1 mph - N/A   Overcast
3:53 AM 32.0 °F 24.2 °F 21.9 °F 66% 30.23 in 10.0 mi WNW 9.2 mph - N/A   Overcast
4:53 AM 34.0 °F 28.8 °F 21.0 °F 59% 30.23 in 10.0 mi Variable 5.8 mph - N/A   Overcast
5:53 AM 27.0 °F 19.5 °F 17.1 °F 66% 30.25 in 10.0 mi SSW 6.9 mph - N/A   Partly Cloudy
6:53 AM 28.0 °F - 16.0 °F 61% 30.24 in 10.0 mi Calm Calm - N/A   Clear
7:53 AM 27.0 °F 20.5 °F 16.0 °F 63% 30.24 in 10.0 mi South 5.8 mph - N/A   Clear
8:53 AM 27.0 °F 19.5 °F 16.0 °F 63% 30.22 in 10.0 mi South 6.9 mph - N/A   Clear
9:53 AM 30.0 °F - 17.1 °F 59% 30.22 in 10.0 mi Calm Calm - N/A   Clear
10:53 AM 32.0 °F 28.7 °F 19.0 °F 59% 30.19 in 10.0 mi South 3.5 mph - N/A   Clear
11:53 AM 33.1 °F - 19.9 °F 59% 30.15 in 10.0 mi Calm Calm - N/A   Clear
12:53 PM 33.1 °F 28.7 °F 21.0 °F 61% 30.14 in 10.0 mi South 4.6 mph - N/A   Clear
1:53 PM 37.0 °F 34.5 °F 21.0 °F 52% 30.11 in 10.0 mi ENE 3.5 mph - N/A   Clear
2:53 PM 37.0 °F 33.3 °F 18.0 °F 46% 30.11 in 10.0 mi South 4.6 mph - N/A   Clear
3:53 PM 36.0 °F 33.3 °F 18.0 °F 48% 30.12 in 10.0 mi SSE 3.5 mph - N/A   Clear
4:53 PM 52.0 °F - 18.0 °F 26% 30.06 in 10.0 mi SSW 5.8 mph - N/A   Clear
5:53 PM 44.1 °F 40.1 °F 15.1 °F 31% 30.11 in 10.0 mi SSW 6.9 mph - N/A   Scattered Clouds
6:53 PM 51.1 °F - 15.1 °F 24% 30.07 in 10.0 mi SSE 13.8 mph - N/A   Clear
7:53 PM 36.0 °F - 12.9 °F 39% 30.12 in 10.0 mi Calm Calm - N/A   Clear
8:53 PM 46.0 °F 43.1 °F 14.0 °F 28% 30.09 in 10.0 mi WSW 5.8 mph - N/A   Clear
9:53 PM 36.0 °F 33.3 °F 16.0 °F 44% 30.11 in 10.0 mi SSW 3.5 mph - N/A   Clear
10:53 PM 48.0 °F - 15.1 °F 27% 30.06 in 10.0 mi South 10.4 mph - N/A   Clear
11:53 PM 48.0 °F - 18.0 °F 30% 30.04 in 10.0 mi SSW 5.8 mph - N/A   Overcast